KF5RM Weather Reports


Display with metric or nautical units.
time (UTC)temp
F
wind
direction
speed
MPH
gust
MPH
rain 1hr
in
rain 24hr
in
rain mn
in
humidity
%
barometer
mb
20260510132503 78 0 0.0 0.0 0.00 0.00 0.00 87 1013.1
20260510132003 78 0 0.0 0.0 0.00 0.00 0.00 89 1013.0
20260510131503 77 0 0.0 0.0 0.00 0.00 0.00 90 1012.9
20260510130503 76 0 0.0 0.0 0.00 0.00 0.00 90 1013.0
20260510125503 76 0 0.0 0.0 0.00 0.00 0.00 90 1012.8
20260510125004 76 0 0.0 0.0 0.00 0.00 0.00 90 1012.7
20260510124504 76 0 0.0 0.0 0.00 0.00 0.00 90 1012.7
20260510124004 76 0 0.0 0.0 0.00 0.00 0.00 90 1012.6
20260510123503 76 0 0.0 0.0 0.00 0.00 0.00 91 1012.6
20260510123004 75 0 0.0 0.0 0.00 0.00 0.00 92 1012.5
20260510122504 75 0 0.0 0.0 0.00 0.00 0.00 92 1012.5
20260510122003 75 0 0.0 0.0 0.00 0.00 0.00 93 1012.4
20260510121504 74 0 0.0 0.0 0.00 0.00 0.00 93 1012.3
20260510121004 74 0 0.0 0.0 0.00 0.00 0.00 93 1012.3
20260510120503 74 0 0.0 0.0 0.00 0.00 0.00 93 1012.4
20260510120004 74 0 0.0 0.0 0.00 0.00 0.00 92 1012.3
20260510115003 74 0 0.0 0.0 0.00 0.00 0.00 92 1012.2
20260510114504 74 0 0.0 0.0 0.00 0.00 0.00 92 1012.2
20260510114003 74 0 0.0 0.0 0.00 0.00 0.00 92 1012.2
20260510113503 74 0 0.0 0.0 0.00 0.00 0.00 92 1012.1
20260510113003 74 0 0.0 0.0 0.00 0.00 0.00 92 1012.1
20260510112504 74 0 0.0 0.0 0.00 0.00 0.00 92 1012.1
20260510111503 74 0 0.0 0.0 0.00 0.00 0.00 91 1012.2
20260510111004 74 0 0.0 0.0 0.00 0.00 0.00 91 1012.2
20260510110503 75 0 0.0 0.0 0.00 0.00 0.00 91 1012.3
20260510105503 75 0 0.0 0.0 0.00 0.00 0.00 91 1012.2
20260510104503 75 0 0.0 0.0 0.00 0.00 0.00 91 1012.3
20260510104003 75 0 0.0 0.0 0.00 0.00 0.00 90 1012.3
20260510103004 75 0 0.0 0.0 0.00 0.00 0.00 90 1012.3
20260510102504 75 0 0.0 0.0 0.00 0.00 0.00 90 1012.4
20260510102004 75 0 0.0 0.0 0.00 0.00 0.00 90 1012.3
20260510101504 75 0 0.0 0.0 0.00 0.00 0.00 89 1012.3
20260510100504 75 0 0.0 0.0 0.00 0.00 0.00 89 1012.3
20260510100004 75 0 0.0 0.0 0.00 0.00 0.00 89 1012.2
20260510095504 75 0 0.0 0.0 0.00 0.00 0.00 88 1012.3
20260510095004 75 0 0.0 0.0 0.00 0.00 0.00 88 1012.3
20260510094503 75 0 0.0 0.0 0.00 0.00 0.00 88 1012.2
20260510094004 75 0 0.0 0.0 0.00 0.00 0.00 88 1012.2
20260510093503 75 0 0.0 0.0 0.00 0.00 0.00 88 1012.2
20260510093004 76 0 0.0 0.0 0.00 0.00 0.00 88 1012.2
20260510092503 76 0 0.0 0.0 0.00 0.00 0.00 87 1012.1
20260510092004 76 0 0.0 0.0 0.00 0.00 0.00 87 1012.1
20260510091503 76 0 0.0 0.0 0.00 0.00 0.00 87 1012.2
20260510091003 76 0 0.0 0.0 0.00 0.00 0.00 87 1012.4
20260510090503 76 0 0.0 0.0 0.00 0.00 0.00 86 1012.5
20260510085504 76 0 0.0 0.0 0.00 0.00 0.00 86 1012.5
20260510085003 76 0 0.0 0.0 0.00 0.00 0.00 85 1012.4
20260510084504 76 0 0.0 0.0 0.00 0.00 0.00 85 1012.3
20260510083503 76 0 0.0 0.0 0.00 0.00 0.00 84 1012.4
20260510083004 76 0 0.0 0.0 0.00 0.00 0.00 84 1012.3
20260510082503 76 0 0.0 0.0 0.00 0.00 0.00 84 1012.3
20260510081504 77 0 0.0 0.0 0.00 0.00 0.00 84 1012.4
20260510081004 77 0 0.0 0.0 0.00 0.01 0.00 83 1012.5
20260510080504 77 0 0.0 0.0 0.00 0.01 0.00 83 1012.6
20260510075504 77 0 0.0 0.0 0.00 0.02 0.00 83 1012.7
20260510075004 77 0 0.0 0.0 0.00 0.04 0.00 82 1012.6
20260510074004 77 0 0.0 0.0 0.00 0.07 0.00 82 1012.7
20260510073503 77 0 0.0 0.0 0.00 0.11 0.00 82 1012.7
20260510073004 77 0 0.0 0.0 0.00 0.12 0.00 81 1012.7
20260510072004 77 0 0.0 0.0 0.00 0.13 0.00 81 1012.7
20260510071503 77 0 0.0 0.0 0.00 0.14 0.00 81 1012.7
20260510070503 77 0 0.0 0.0 0.00 0.14 0.00 80 1012.7
20260510070003 78 0 0.0 0.0 0.00 0.14 0.00 80 1012.6
20260510065503 78 0 0.0 0.0 0.00 0.14 0.00 79 1012.7
20260510065002 78 0 0.0 0.0 0.00 0.14 0.00 79 1012.7
20260510064503 78 0 0.0 0.0 0.00 0.14 0.00 78 1012.7
20260510064002 78 0 0.0 0.0 0.00 0.14 0.00 78 1012.6
20260510063502 78 0 0.0 0.0 0.00 0.14 0.00 78 1012.6
20260510063003 78 0 0.0 0.0 0.00 0.14 0.00 78 1012.7
20260510062502 78 0 0.0 0.0 0.00 0.14 0.00 78 1012.8
20260510062002 78 0 0.0 0.0 0.00 0.14 0.00 78 1012.7
20260510061502 78 0 0.0 0.0 0.00 0.14 0.00 78 1012.8
20260510060502 79 0 0.0 0.0 0.00 0.14 0.00 78 1012.8
20260510060003 79 0 0.0 0.0 0.00 0.14 0.00 79 1012.9
20260510055502 79 0 0.0 0.0 0.00 0.14 0.00 79 1012.8
20260510055003 79 0 0.0 0.0 0.00 0.14 0.00 79 1012.7
20260510054502 79 0 0.0 0.0 0.00 0.14 0.00 78 1012.8
20260510054003 79 0 0.0 0.0 0.00 0.14 0.00 78 1012.7
20260510053502 79 0 0.0 0.0 0.00 0.14 0.00 78 1012.5
20260510053003 80 0 0.0 0.0 0.00 0.14 0.00 78 1012.5
20260510052503 80 0 0.0 0.0 0.00 0.14 0.00 78 1012.3
20260510052003 80 0 0.0 0.0 0.00 0.14 0.00 77 1012.4
20260510051503 80 0 0.0 0.0 0.00 0.14 0.00 77 1012.4
20260510051003 80 0 0.0 0.0 0.00 0.14 0.00 77 1012.5
20260510050503 80 0 0.0 0.0 0.00 0.14 0.00 76 1012.3
20260510050004 80 0 0.0 0.0 0.00 0.14 0.00 76 1012.3
20260510044502 80 0 0.0 0.0 0.00 0.14 0.14 76 1012.1
20260510044003 81 0 0.0 0.0 0.00 0.14 0.14 75 1012.2
20260510043002 81 0 0.0 0.0 0.00 0.14 0.14 75 1012.4
20260510042502 81 0 0.0 0.0 0.00 0.14 0.14 74 1012.5
20260510042002 81 0 0.0 0.0 0.00 0.14 0.14 74 1012.5
20260510041503 82 0 0.0 0.0 0.00 0.14 0.14 73 1012.5
20260510041003 82 0 0.0 0.0 0.00 0.14 0.14 72 1012.5
20260510040503 82 0 0.0 0.0 0.00 0.14 0.14 71 1012.5
20260510040003 82 0 0.0 0.0 0.00 0.14 0.14 71 1012.4
20260510035002 83 140 0.0 11.0 0.00 0.14 0.14 69 1012.4
20260510034502 83 0 0.0 0.0 0.00 0.14 0.14 68 1012.3
20260510034002 83 0 0.0 0.0 0.00 0.14 0.14 67 1012.3
20260510033502 83 0 0.0 0.0 0.00 0.14 0.14 66 1012.2
20260510033003 84 94 0.0 1.0 0.00 0.14 0.14 65 1012.3
20260510032002 84 142 0.0 5.0 0.00 0.14 0.14 64 1012.0
20260510031503 84 0 0.0 0.0 0.00 0.14 0.14 63 1011.8
20260510030503 84 0 0.0 0.0 0.00 0.14 0.14 62 1011.6
20260510030004 85 0 0.0 0.0 0.00 0.14 0.14 61 1011.6
20260510025502 85 0 0.0 0.0 0.00 0.14 0.14 61 1011.5
20260510025002 85 0 0.0 0.0 0.00 0.14 0.14 61 1011.3
20260510024502 85 0 0.0 0.0 0.00 0.14 0.14 60 1011.2
20260510024003 85 0 0.0 0.0 0.00 0.14 0.14 60 1011.2
20260510023502 85 0 0.0 0.0 0.00 0.14 0.14 60 1011.1
20260510022502 85 109 0.0 1.0 0.00 0.14 0.14 59 1011.0
20260510022003 86 0 0.0 0.0 0.00 0.14 0.14 59 1010.9
20260510021003 86 0 0.0 0.0 0.00 0.14 0.14 59 1010.7
20260510020503 86 0 0.0 0.0 0.00 0.14 0.14 58 1010.6
20260510015003 86 0 0.0 0.0 0.00 0.14 0.14 56 1010.2
20260510014503 87 0 0.0 0.0 0.00 0.14 0.14 56 1010.1
20260510014003 87 0 0.0 0.0 0.00 0.14 0.14 55 1010.0
20260510013502 87 0 0.0 0.0 0.00 0.14 0.14 54 1009.9
20260510013003 87 0 1.0 0.0 0.00 0.14 0.14 53 1009.9
20260510012503 88 105 2.0 8.0 0.00 0.14 0.14 53 1009.9
20260510012002 88 118 1.0 8.0 0.00 0.14 0.14 52 1009.8
20260510011503 88 121 0.0 7.0 0.00 0.14 0.14 52 1009.6
20260510011003 88 123 0.0 5.0 0.00 0.14 0.14 52 1009.5
20260510010503 88 105 0.0 2.0 0.00 0.14 0.14 53 1009.4
20260510010003 89 0 0.0 0.0 0.00 0.14 0.14 53 1009.5
20260510005503 89 0 0.0 0.0 0.00 0.14 0.14 53 1009.4
20260510005003 89 0 0.0 0.0 0.00 0.14 0.14 53 1009.3
20260510004503 89 110 0.0 9.0 0.00 0.14 0.14 52 1009.3
20260510004003 89 110 0.0 9.0 0.00 0.14 0.14 51 1009.1
20260510003502 89 140 0.0 4.0 0.00 0.14 0.14 50 1009.2
20260510003004 90 146 0.0 4.0 0.00 0.14 0.14 50 1009.3
20260510002503 90 0 0.0 0.0 0.00 0.14 0.14 50 1009.3
20260510002002 90 0 1.0 0.0 0.00 0.14 0.14 49 1009.0
20260510001503 90 119 1.0 11.0 0.00 0.14 0.14 49 1009.0
20260510001002 90 119 0.0 11.0 0.00 0.14 0.14 49 1009.1
20260510000503 90 102 1.0 9.0 0.00 0.14 0.14 49 1009.1
20260510000003 90 101 1.0 9.0 0.00 0.14 0.14 50 1009.1
20260509235503 91 104 1.0 6.0 0.00 0.14 0.14 49 1009.2
20260509235002 91 105 1.0 6.0 0.00 0.14 0.14 50 1009.2
20260509234502 91 125 2.0 7.0 0.00 0.14 0.14 49 1009.1
20260509234003 91 123 1.0 10.0 0.00 0.14 0.14 49 1009.2
20260509233503 91 122 0.0 10.0 0.00 0.14 0.14 48 1009.1
20260509233004 91 116 0.0 4.0 0.00 0.14 0.14 47 1009.2
20260509232503 91 117 0.0 1.0 0.00 0.14 0.14 49 1009.0
20260509232003 91 133 0.0 6.0 0.00 0.14 0.14 49 1009.2
20260509231503 91 122 0.0 7.0 0.00 0.14 0.14 48 1009.2
20260509230004 92 116 0.0 5.0 0.00 0.14 0.14 47 1009.2
20260509225503 91 116 0.0 5.0 0.00 0.14 0.14 48 1009.2
20260509225003 91 0 0.0 0.0 0.00 0.14 0.14 47 1009.2
20260509224503 92 0 0.0 0.0 0.00 0.14 0.14 47 1009.3
20260509223502 91 147 0.0 5.0 0.00 0.14 0.14 47 1009.2
20260509223004 91 127 0.0 6.0 0.00 0.14 0.14 47 1009.3
20260509222502 91 120 0.0 6.0 0.00 0.14 0.14 48 1009.3
20260509221503 91 0 0.0 0.0 0.00 0.14 0.14 48 1009.4
20260509221003 91 0 0.0 0.0 0.00 0.14 0.14 47 1009.5
20260509220503 91 0 0.0 0.0 0.00 0.14 0.14 47 1009.7
20260509220003 91 0 0.0 0.0 0.00 0.14 0.14 48 1009.7
20260509215003 92 0 0.0 0.0 0.00 0.14 0.14 48 1009.6
20260509214503 92 0 0.0 0.0 0.00 0.14 0.14 48 1009.6
20260509214002 91 0 0.0 0.0 0.00 0.14 0.14 49 1009.6
20260509213003 91 0 0.0 0.0 0.00 0.14 0.14 47 1009.8
20260509212503 91 0 0.0 0.0 0.00 0.14 0.14 48 1009.8
20260509212002 90 145 0.0 3.0 0.00 0.14 0.14 48 1009.9
20260509211503 92 145 0.0 3.0 0.00 0.14 0.14 47 1009.9
20260509211003 92 0 0.0 0.0 0.00 0.14 0.14 46 1010.1
20260509210004 92 0 0.0 0.0 0.00 0.14 0.14 47 1010.1
20260509205503 91 0 0.0 0.0 0.00 0.14 0.14 49 1010.4
20260509205002 91 0 0.0 0.0 0.00 0.14 0.14 48 1010.5
20260509204503 92 0 0.0 0.0 0.00 0.14 0.14 49 1010.4
20260509204003 90 0 0.0 0.0 0.00 0.14 0.14 50 1010.5
20260509203004 90 268 0.0 4.0 0.00 0.14 0.14 50 1010.9
20260509202503 90 268 0.0 4.0 0.00 0.14 0.14 50 1011.0
20260509202003 90 316 0.0 1.0 0.00 0.14 0.14 52 1010.9
20260509201003 90 0 0.0 0.0 0.00 0.14 0.14 51 1011.2
20260509200503 89 0 0.0 0.0 0.00 0.14 0.14 52 1011.2
20260509200003 89 261 1.0 4.0 0.00 0.14 0.14 54 1011.3
20260509195503 88 303 1.0 5.0 0.00 0.14 0.14 52 1011.4
20260509195003 88 312 0.0 5.0 0.00 0.14 0.14 53 1011.4
20260509194503 88 304 0.0 4.0 0.00 0.14 0.14 52 1011.6
20260509194003 89 0 0.0 0.0 0.00 0.14 0.14 53 1011.6
20260509193502 89 0 0.0 0.0 0.00 0.14 0.14 53 1011.7
20260509192502 88 0 0.0 0.0 0.00 0.14 0.14 54 1011.9
20260509192003 88 0 0.0 0.0 0.00 0.14 0.14 55 1011.9
20260509191503 87 0 0.0 0.0 0.00 0.14 0.14 54 1011.9
20260509191002 87 0 0.0 0.0 0.00 0.14 0.14 55 1012.0
20260509190503 88 0 0.0 0.0 0.00 0.14 0.14 55 1012.1
20260509190004 87 0 0.0 0.0 0.00 0.14 0.14 55 1012.1
20260509185503 87 0 0.0 0.0 0.00 0.14 0.14 54 1012.3
20260509185003 88 0 0.0 0.0 0.00 0.14 0.14 54 1012.3
20260509184502 88 0 0.0 0.0 0.00 0.14 0.14 56 1012.3
20260509184003 88 0 0.0 0.0 0.00 0.14 0.14 56 1012.5
20260509183003 86 0 0.0 0.0 0.00 0.14 0.14 56 1012.9
20260509182503 86 0 0.0 0.0 0.00 0.14 0.14 57 1012.9
20260509182003 86 0 0.0 0.0 0.00 0.14 0.14 57 1013.0
20260509181503 86 0 0.0 0.0 0.00 0.14 0.14 57 1013.2
20260509181003 86 0 0.0 0.0 0.00 0.14 0.14 57 1013.2
20260509180503 86 0 0.0 0.0 0.00 0.14 0.14 57 1013.1
20260509180003 86 0 0.0 0.0 0.00 0.14 0.14 58 1013.2
20260509175502 86 0 0.0 0.0 0.00 0.14 0.14 60 1013.1
20260509175003 85 0 0.0 0.0 0.00 0.14 0.14 61 1013.2
20260509174503 85 0 0.0 0.0 0.00 0.14 0.14 59 1013.4
20260509174003 85 0 0.0 0.0 0.00 0.14 0.14 60 1013.4
20260509173503 84 0 0.0 0.0 0.00 0.14 0.14 60 1013.4
20260509173003 85 0 0.0 0.0 0.00 0.14 0.14 60 1013.6
20260509172502 85 0 0.0 0.0 0.00 0.14 0.14 61 1013.6
20260509172003 85 0 0.0 0.0 0.00 0.14 0.14 61 1013.7
20260509171503 84 0 0.0 0.0 0.00 0.14 0.14 62 1013.8
20260509171004 84 0 0.0 0.0 0.00 0.14 0.14 64 1013.9
20260509170503 83 0 0.0 0.0 0.00 0.14 0.14 64 1014.0
20260509165503 83 0 0.0 0.0 0.00 0.14 0.14 63 1014.2
20260509165003 82 0 0.0 0.0 0.00 0.14 0.14 68 1014.2
20260509164003 82 0 0.0 0.0 0.00 0.14 0.14 69 1014.2
20260509163503 81 0 0.0 0.0 0.00 0.14 0.14 69 1014.2
20260509163004 82 0 0.0 0.0 0.00 0.14 0.14 69 1014.2
20260509162503 82 0 0.0 0.0 0.00 0.14 0.14 68 1014.2
20260509161503 81 0 0.0 0.0 0.00 0.14 0.14 72 1014.1
20260509160004 80 0 0.0 0.0 0.00 0.14 0.14 73 1014.2
20260509155503 80 0 0.0 0.0 0.00 0.14 0.14 74 1014.2
20260509155003 80 0 0.0 0.0 0.00 0.14 0.14 72 1014.2
20260509154004 80 0 0.0 0.0 0.00 0.14 0.14 74 1014.1
20260509153503 80 0 0.0 0.0 0.00 0.14 0.14 74 1014.1
20260509153003 79 0 0.0 0.0 0.00 0.14 0.14 74 1014.0
20260509152002 78 0 0.0 0.0 0.00 0.14 0.14 75 1014.0
20260509151503 78 0 0.0 0.0 0.00 0.14 0.14 75 1013.9
20260509151003 79 0 0.0 0.0 0.00 0.14 0.14 75 1013.9
20260509150503 78 0 0.0 0.0 0.00 0.14 0.14 77 1013.9
20260509150004 78 0 0.0 0.0 0.00 0.14 0.14 76 1013.8
20260509145503 78 0 0.0 0.0 0.00 0.14 0.14 76 1014.0
20260509145003 78 0 0.0 0.0 0.00 0.14 0.14 78 1014.0
20260509144503 77 0 0.0 0.0 0.00 0.14 0.14 78 1014.2
20260509143004 77 0 0.0 0.0 0.00 0.14 0.14 79 1014.3
20260509142503 77 0 0.0 0.0 0.00 0.14 0.14 80 1014.0
20260509142003 77 0 0.0 0.0 0.00 0.14 0.14 81 1014.2
20260509141503 77 0 0.0 0.0 0.00 0.14 0.14 83 1014.1
20260509141003 76 0 0.0 0.0 0.00 0.14 0.14 84 1014.1
20260509140504 75 0 0.0 0.0 0.00 0.14 0.14 85 1014.2
20260509140005 75 0 0.0 0.0 0.00 0.14 0.14 87 1014.2
20260509135503 74 0 0.0 0.0 0.00 0.14 0.14 88 1014.3
20260509134503 74 0 0.0 0.0 0.00 0.14 0.14 88 1013.9
20260509134003 74 0 0.0 0.0 0.00 0.14 0.14 88 1013.8
20260509133504 74 0 0.0 0.0 0.00 0.14 0.14 89 1013.7